(248571) = 2006 AL87

Discovered at Kitt Peak on 2006-01-04 by Spacewatch.

Orbit

Orbit type: Hilda

Note: WebGL enabled browser required.

epoch2023-02-25.0
epoch JD2460000.5
perihelion date2019-05-31.44989
perihelion JD2458634.94989
argument of perihelion (°)297.48329
ascending node (°)80.63351
inclination (°)2.39336
eccentricity0.1160234
perihelion distance (AU)3.4377482
Tisserand w.r.t. Jupiter3.1
ΔV w.r.t. Earth (km/sec)11.2
semimajor axis (AU)3.8889584
mean anomaly (°)175.49370
mean daily motion (°/day)0.12851500
aphelion distance (AU)4.340
period (years)7.67
P-vector [x]0.94966102
P-vector [y]0.30014783
P-vector [z]0.08975096
Q-vector [x]-0.31055798
Q-vector [y]0.86427153
Q-vector [z]0.39571261
absolute magnitude15.34
phase slope0.15
uncertainty0
referenceMPO 745323
observations used203
oppositions15
arc length (days)6785
first opposition used2004
last opposition used2023
residual rms (arc-secs)0.79
perturbers coarse indicatorM-v
perturbers precise indicator003Ek
first observation date used2004-10-15.0
last observation date used2023-05-14.0
computer nameMPCLINUX
JD of orbit computation2456731.486971
perihelion JD uncertainty (days)2.3733E-04
argument of perihelion uncertainty (°)1.7001E-04
ascending node uncertainty (°)1.6676E-04
inclination uncertainty (°)6.1567E-06
eccentricity uncertainty 7.1975E-08
perihelion distance uncertainty (AU)2.9979E-07
Minimum Orbit Intersection Distances (in AU)
for orbit epoch: 2460000.5, reference: E2023-JF5
Mercury3.09233
Venus2.71257
Earth2.43897
Mars2.01046
Jupiter1.11414
Saturn5.13785
Uranus14.1514
Neptune26.373

Observations

207 total observations over interval: 2004 10 15.45902 – 2023 05 14.289006
These data are available for download (format description).

Date (UT) J2000 RA J2000 Dec Magn Location Ref
2004 10 15.45902 04 37 49.04 +20 56 10.2 21.1 R G96 – Mt. Lemmon Survey MPS 218691
2004 10 15.46514 04 37 48.96 +20 56 10.3 20.8 R G96 – Mt. Lemmon Survey MPS 218691
2004 10 15.47123 04 37 48.90 +20 56 10.0 20.6 R G96 – Mt. Lemmon Survey MPS 218691
2004 10 15.47734 04 37 48.80 +20 56 10.0 21.1 R G96 – Mt. Lemmon Survey MPS 218691
2004 11 10.40859 04 26 01.75 +20 38 47.5 20.5 V 691 – Steward Observatory, Kitt Peak-Spacewatch MPS 218691
2004 11 10.43478 04 26 00.70 +20 38 45.4 20.7 V 691 – Steward Observatory, Kitt Peak-Spacewatch MPS 218691
2004 11 10.46108 04 25 59.63 +20 38 43.8 20.4 V 691 – Steward Observatory, Kitt Peak-Spacewatch MPS 218691
2004 12 20.20324 03 58 16.28 +19 48 22.0 20.2 R G96 – Mt. Lemmon Survey MPS 218691
2004 12 20.21512 03 58 15.90 +19 48 21.1 19.9 R G96 – Mt. Lemmon Survey MPS 218691
2004 12 20.22691 03 58 15.50 +19 48 20.3 19.8 R G96 – Mt. Lemmon Survey MPS 218691
2004 12 20.23862 03 58 15.10 +19 48 19.6 19.9 R G96 – Mt. Lemmon Survey MPS 218691
2006 01 04.39853 08 43 36.07 +20 16 51.1 21.2 V 691 – Steward Observatory, Kitt Peak-Spacewatch MPS 160584
2006 01 04.41591 08 43 35.46 +20 16 53.1 21.2 V 691 – Steward Observatory, Kitt Peak-Spacewatch MPS 160584
2006 01 04.43330 08 43 34.84 +20 16 55.2 21.2 V 691 – Steward Observatory, Kitt Peak-Spacewatch MPS 160584
2006 01 23.12749 08 31 09.65 +21 11 09.8 21.2 V 691 – Steward Observatory, Kitt Peak-Spacewatch MPS 160584
2006 01 23.14491 08 31 08.90 +21 11 13.0 20.6 V 691 – Steward Observatory, Kitt Peak-Spacewatch MPS 160584
2006 01 23.16232 08 31 08.13 +21 11 16.2 20.9 V 691 – Steward Observatory, Kitt Peak-Spacewatch MPS 160584
2006 01 26.32831 08 28 51.85 +21 20 10.2 20.6 V G96 – Mt. Lemmon Survey MPS 160584
2006 01 26.33517 08 28 51.56 +21 20 11.1 20.9 V G96 – Mt. Lemmon Survey MPS 160584
2006 01 26.34205 08 28 51.24 +21 20 12.8 20.6 V G96 – Mt. Lemmon Survey MPS 160584
2006 01 26.34895 08 28 50.95 +21 20 14.0 20.4 V G96 – Mt. Lemmon Survey MPS 160584
2006 03 04.18949 08 07 54.62 +22 28 37.3 21.3 V G96 – Mt. Lemmon Survey MPS 218691
2006 03 04.19503 08 07 54.51 +22 28 37.0 21.8 V G96 – Mt. Lemmon Survey MPS 218691
2006 03 04.20060 08 07 54.48 +22 28 37.5 22.6 V G96 – Mt. Lemmon Survey MPS 218691
2006 03 04.20631 08 07 54.33 +22 28 37.9 21.4 V G96 – Mt. Lemmon Survey MPS 218691
2007 02 21.37310 11 50 13.18 +04 24 23.6 21.7 V 691 – Steward Observatory, Kitt Peak-Spacewatch MPS 218691
2007 02 21.39471 11 50 12.50 +04 24 28.7 21.8 V 691 – Steward Observatory, Kitt Peak-Spacewatch MPS 218691
2007 02 21.41311 11 50 11.97 +04 24 32.3 21.6 V 691 – Steward Observatory, Kitt Peak-Spacewatch MPS 218691
2007 03 10.22777 11 40 44.76 +05 29 42.0 21.4 V 691 – Steward Observatory, Kitt Peak-Spacewatch MPS 218691
2007 03 10.24536 11 40 44.08 +05 29 46.2 21.5 V 691 – Steward Observatory, Kitt Peak-Spacewatch MPS 218691
2007 03 10.26294 11 40 43.43 +05 29 50.7 21.2 V 691 – Steward Observatory, Kitt Peak-Spacewatch MPS 218691
2008 04 14.25423 14 25 20.94 -12 02 45.7 21.0 V 691 – Steward Observatory, Kitt Peak-Spacewatch MPS 246785
2008 04 14.27184 14 25 20.29 -12 02 42.5 21.0 V 691 – Steward Observatory, Kitt Peak-Spacewatch MPS 246785
2008 04 14.28945 14 25 19.66 -12 02 40.0 21.2 V 691 – Steward Observatory, Kitt Peak-Spacewatch MPS 246785
2010 05 08.760941 21 21 14.318 -17 11 47.26   C51 – WISE MPS 903755
2010 05 08.893245 21 21 18.90 -17 11 30.4   C51 – WISE MPS 341848
2010 05 09.025550 21 21 23.26 -17 11 16.0   C51 – WISE MPS 341848
2010 05 09.157854 21 21 27.73 -17 11 02.0   C51 – WISE MPS 341848
2010 05 09.488678 21 21 38.89 -17 10 20.7   C51 – WISE MPS 341848
2010 05 09.620983 21 21 43.42 -17 10 06.2   C51 – WISE MPS 341848
2010 05 09.753286 21 21 47.87 -17 09 53.3   C51 – WISE MPS 341848
2010 07 04.40757 21 28 37.80 -17 21 37.3 20.9 V 691 – Steward Observatory, Kitt Peak-Spacewatch MPS 337348
2010 07 04.42532 21 28 37.43 -17 21 40.9 20.9 V 691 – Steward Observatory, Kitt Peak-Spacewatch MPS 337348
2010 07 04.44302 21 28 37.08 -17 21 43.3 21.0 V 691 – Steward Observatory, Kitt Peak-Spacewatch MPS 337348
2011 07 09.58364 01 23 10.904 +06 11 44.35 21.8 w F51 – Pan-STARRS 1, Haleakala MPS 387748
2011 07 09.58826 01 23 11.081 +06 11 44.95 22.0 w F51 – Pan-STARRS 1, Haleakala MPS 387748
2011 07 09.59287 01 23 11.268 +06 11 46.13 22.0 w F51 – Pan-STARRS 1, Haleakala MPS 387748
2011 09 23.46002 01 30 43.937 +06 18 58.52 20.7 w F51 – Pan-STARRS 1, Haleakala MPS 394114
2011 09 23.47538 01 30 43.441 +06 18 55.48 20.6 w F51 – Pan-STARRS 1, Haleakala MPS 394114
2011 09 23.49082 01 30 42.939 +06 18 52.42 20.7 w F51 – Pan-STARRS 1, Haleakala MPS 394114
2011 09 23.50643 01 30 42.419 +06 18 48.65 20.6 w F51 – Pan-STARRS 1, Haleakala MPS 394114
2011 09 28.24884 01 28 06.89 +06 02 59.9 20.6 V 691 – Steward Observatory, Kitt Peak-Spacewatch MPS 394114
2011 09 28.27002 01 28 06.14 +06 02 55.7 20.6 V 691 – Steward Observatory, Kitt Peak-Spacewatch MPS 394114
2011 09 28.28772 01 28 05.52 +06 02 52.2 20.4 V 691 – Steward Observatory, Kitt Peak-Spacewatch MPS 394114
2011 10 25.26492 01 11 02.680 +04 27 10.69 20.6 r F51 – Pan-STARRS 1, Haleakala MPS 398004
2011 10 25.28299 01 11 02.006 +04 27 07.19 20.3 r F51 – Pan-STARRS 1, Haleakala MPS 398004
2012 12 13.39013 05 47 18.78 +23 41 07.0 19.9 V G96 – Mt. Lemmon Survey MPS 447590
2012 12 13.39720 05 47 18.49 +23 41 07.0 19.5 V G96 – Mt. Lemmon Survey MPS 447590
2012 12 13.40425 05 47 18.13 +23 41 07.4 19.9 V G96 – Mt. Lemmon Survey MPS 447590
2012 12 13.41128 05 47 17.77 +23 41 07.1 20.1 V G96 – Mt. Lemmon Survey MPS 447590
2012 12 17.15231 05 44 25.29 +23 41 59.1 19.6 R 926 – Tenagra II Observatory, Nogales MPS 448463
2012 12 17.16618 05 44 24.59 +23 41 59.4 19.6 R 926 – Tenagra II Observatory, Nogales MPS 448463
2012 12 17.18239 05 44 23.85 +23 41 59.9 19.7 R 926 – Tenagra II Observatory, Nogales MPS 448463
2013 01 04.19160 05 31 12.93 +23 43 12.5 20.4 V G96 – Mt. Lemmon Survey MPS 449514
2013 01 04.19744 05 31 12.75 +23 43 12.7 20.9 V G96 – Mt. Lemmon Survey MPS 449514
2013 01 04.20336 05 31 12.50 +23 43 12.8 20.9 V G96 – Mt. Lemmon Survey MPS 449514
2013 01 04.20921 05 31 12.25 +23 43 12.0 20.2 V G96 – Mt. Lemmon Survey MPS 449514
2013 01 04.21500 05 31 12.03 +23 43 12.1 20.4 V G96 – Mt. Lemmon Survey MPS 449514
2013 01 05.09838 05 30 37.66 +23 43 10.8 20.8 V 691 – Steward Observatory, Kitt Peak-Spacewatch MPS 450773
2013 01 05.14045 05 30 36.00 +23 43 10.6 20.9 V 691 – Steward Observatory, Kitt Peak-Spacewatch MPS 450773
2013 01 05.16975 05 30 34.83 +23 43 10.6 20.7 V 691 – Steward Observatory, Kitt Peak-Spacewatch MPS 450773
2013 01 17.19271 05 23 55.17 +23 42 34.9 20.3 V G96 – Mt. Lemmon Survey MPS 452124
2013 01 17.19898 05 23 54.99 +23 42 35.7 20.4 V G96 – Mt. Lemmon Survey MPS 452124
2013 01 17.20531 05 23 54.78 +23 42 35.6 20.6 V G96 – Mt. Lemmon Survey MPS 452124
2013 01 17.21167 05 23 54.63 +23 42 35.3 20.7 V G96 – Mt. Lemmon Survey MPS 452124
2014 01 23.23064 09 43 42.54 +16 25 41.5   691 – Steward Observatory, Kitt Peak-Spacewatch MPS 498295
2014 01 23.24837 09 43 41.89 +16 25 45.4   691 – Steward Observatory, Kitt Peak-Spacewatch MPS 498295
2014 01 23.26610 09 43 41.27 +16 25 48.9   691 – Steward Observatory, Kitt Peak-Spacewatch MPS 498295
2014 02 06.39388 09 34 43.63 +17 15 21.7 20.6 V G96 – Mt. Lemmon Survey MPS 500876
2014 02 06.39890 09 34 43.46 +17 15 23.0 20.9 V G96 – Mt. Lemmon Survey MPS 500876
2014 02 06.40395 09 34 43.19 +17 15 23.7 20.8 V G96 – Mt. Lemmon Survey MPS 500876
2014 02 06.40903 09 34 42.91 +17 15 25.2 21.1 V G96 – Mt. Lemmon Survey MPS 500876
2014 02 09.24107 09 32 49.46 +17 25 12.6 21.0 V 691 – Steward Observatory, Kitt Peak-Spacewatch MPS 501526
2014 02 09.25881 09 32 48.76 +17 25 16.2 20.8 V 691 – Steward Observatory, Kitt Peak-Spacewatch MPS 501526
2014 02 09.27655 09 32 47.99 +17 25 20.0 20.7 V 691 – Steward Observatory, Kitt Peak-Spacewatch MPS 501526
2014 02 22.30507 09 24 15.57 +18 06 47.1 20.5 V G96 – Mt. Lemmon Survey MPS 503732
2014 02 22.31165 09 24 15.31 +18 06 48.4 20.8 V G96 – Mt. Lemmon Survey MPS 503732
2014 02 22.31824 09 24 15.09 +18 06 49.0 20.8 V G96 – Mt. Lemmon Survey MPS 503732
2014 02 22.32478 09 24 14.80 +18 06 50.8 21.4 V G96 – Mt. Lemmon Survey MPS 503732
